Tracking 30314 objects as of 20-Apr-2025
HD Live streaming from Space Station
objects crossing your sky now

COSMOS 249 DEB

Track COSMOS 249 DEB now!
10-day predictions


NORAD ID: 3509
Int'l Code: 1968-091F
Perigee: 360.2 km
Apogee: 542.6 km
Inclination: 62.3 °
Period: 93.5 minutes
Semi major axis: 6822 km
RCS: 0.036 m2 (small)
Launch date: October 20, 1968
Source: Commonwealth of Independent States (former USSR) (CIS)
Launch site: TYURATAM MISSILE AND SPACE COMPLEX (TTMTR)

Note: This is SATELLITE DEBRIS
Your satellite tracking list
Your tracking list is empty




NASA's NSSDC Master Catalog

Two Line Element Set (TLE):
1  3509U 68091F   25110.08042995  .00148540  00000-0  25877-2 0  9990
2  3509  62.3255  41.4504 0133674  76.8025 284.7961 15.40609653843216
Source of the keplerian elements: AFSPC